Retour au catalogue

STARLINK-11507

ActifCommunicationsVLEO
NORAD 62519·PAYLOAD·🇺🇸 United States

Lancé Jan 8, 2025 depuis Cape Canaveral Space Force Station

Loading…

Prochains Passages (prochaines 24 heures)

TLE

FraisSource: CelesTrak SupGP

Époque: Sep 14, 2026, 23:05 UTC

1 62519C 25004J   26257.96229167  .00026315  00000+0  20483-3 0  2571
2 62519  43.0007   9.9731 0001338 288.1868 116.4243 15.70775292    11

Suivez STARLINK-11507 en temps réel avec AllMySat

Download on the App Store